{"data":{"norad_id":63475,"epoch":"2026-09-20T08:34:11.072640Z","epoch_age_seconds":168061,"freshness":"FRESH","line1":"1 63475U 25070R   26263.35707260  .00010330  00000+0  38428-3 0  9992","line2":"2 63475  42.9985 240.8233 0001228 271.5216  88.5495 15.27587540 82747","mean_motion":15.2758754,"eccentricity":0.0001228,"inclination_deg":42.9985,"raan_deg":240.8233,"arg_perigee_deg":271.5216,"mean_anomaly_deg":88.5495,"bstar":0.00038428,"rev_number":8274,"period_min":94.2662834236,"perigee_km":482.18396777993,"apogee_km":483.86906954011,"semimajor_km":6861.16351866,"source":"CELESTRAK","updated_at":"2026-09-21T09:00:35.010263Z"}}